Regional Weather Roundup
Issued by NWS

Home | Current Version | Previous Version | Graphics & Text | Print | Product List | Glossary On
Versions: 1 2 3 4 5 6 7 8 9 10 11 12 13 14 15 16 17 18 19 20 21 22 23 24 25 26 27 28 29 30 31 32 33 34 35 36 37 38 39 40 41 42 43 44 45 46 47 48 49 50
000
ASUS43 KDTX 062301
RWRMI
MICHIGAN HOURLY REGIONAL WEATHER ROUNDUP
NATIONAL WEATHER SERVICE DETROIT/PONTIAC MI
700 PM EDT FRI MAY 06 2016

NOTE: "FAIR" INDICATES FEW OR NO CLOUDS BELOW 12,000 FEET WITH NO
SIGNIFICANT WEATHER AND/OR OBSTRUCTION TO VISIBILITY.

MIZ047>049-052>055-059>063-066>070-074>076-081>083-070000-
SOUTHEAST LOWER MICHIGAN

CITY           SKY/WX    TMP DP  RH WIND       PRES   REMARKS
ADRIAN         SUNNY     71  41  33 NW7       29.84F
ALMA           SUNNY     71  40  31 SW9       29.82F
ANN ARBOR      SUNNY     70  40  33 W7        29.83F
BAD AXE        SUNNY     65  42  43 SE3       29.84F
CARO           SUNNY     70  38  30 NW5       29.82F
DETROIT CITY   SUNNY     69  39  33 SE7       29.83S
DETROIT        MOSUNNY   72  39  30 CALM      29.83F
FLINT          SUNNY     72  39  30 W5        29.83F
GROSSE ILE     SUNNY     64  45  48 SE6       29.82S
HILLSDALE      SUNNY     69  29  22 W8        29.86S
HOWELL         SUNNY     70  37  30 W3        29.83F

CITY           SKY/WX    TMP DP  RH WIND       PRES   REMARKS
JACKSON        SUNNY     70  34  26 NW3       29.84F
LAMBERTVILLE   SUNNY     72  40  30 N7        29.84F
LANSING        SUNNY     71  39  31 NW3       29.84F
LAPEER         FAIR      71  35  26 NW5       29.83F
MASON          SUNNY     69  37  30 W7        29.84F
MONROE         SUNNY     71  44  37 NW7       29.82S
MT. CLEMENS    SUNNY     70  42  36 VRB2      29.82F
PONTIAC        MOSUNNY   70  38  31 N5        29.83S
PORT HOPE        N/A     54  45  71 E9        29.83F
PORT HURON     SUNNY     66  39  37 NE8       29.84S
TRI CITIES     SUNNY     73  37  27 SW6       29.82F
MIDLAND        FAIR      72  39  30 S9        29.80F
TROY           SUNNY     73  37  27 W3        29.84F
SAGINAW HB     SUNNY     72  34  25 W5        29.82S
$$
MIZ043>046-050>051-056>058-064>065-071>073-077>080-070000-
SOUTHWEST LOWER MICHIGAN

CITY           SKY/WX    TMP DP  RH WIND       PRES   REMARKS
BATTLE CREEK   SUNNY     72  39  30 CALM      29.85F
BENTON HARBOR  SUNNY     73  42  32 S7        29.83F
BIG RAPIDS     SUNNY     72  33  23 SW8       29.80F
COLDWATER      SUNNY     70  40  34 NW5       29.85S
FREMONT        FAIR      69  31  24 SW9       29.81F
HOLLAND        SUNNY     69  37  30 S12       29.83F
GRAND RAPIDS   PTSUNNY   73  40  30 W10       29.83F
IONIA          FAIR      71  40  32 SW9       29.82F
KALAMAZOO      SUNNY     72  39  30 W8        29.84F
LUDINGTON      SUNNY     68  38  34 S10       29.79F
MARSHALL       SUNNY     71  41  33 SW7       29.84S
MOUNT PLEASANT SUNNY     73  40  30 SW6       29.80F
MUSKEGON       PTSUNNY   69  32  25 S10       29.82F
$$
MIZ016>042-070000-
NORTHERN LOWER MICHIGAN

CITY           SKY/WX    TMP DP  RH WIND       PRES   REMARKS
ALPENA         SUNNY     62  40  44 E7        29.78F
BEAVER ISLAND  SUNNY     69  35  29 S9G17     29.74F
BELLAIRE       SUNNY     78  38  23 SW3       29.74F
CADILLAC       SUNNY     73  40  30 SW8       29.78F
CHARLEVOIX     SUNNY     63  41  43 W7        29.78F
FRANKFORT      SUNNY     66  41  39 S10       29.76F
GAYLORD        SUNNY     76  39  26 W9        29.77F
GRAYLING       SUNNY     76  40  28 S7        29.79S
HARBOR SPRINGS SUNNY     59  43  54 SW3       29.77S
HOUGHTON LAKE  SUNNY     75  37  25 W6        29.79F
MANISTEE       SUNNY     72  37  28 S9G16     29.78F
OSCODA         SUNNY     66  30  26 S15       29.81F
PELLSTON       SUNNY     70  39  32 N12       29.77S
ROGERS CITY    SUNNY     67  36  31 SE12      29.77F
TRAVERSE CITY  PTSUNNY   78  40  25 W8        29.74F
$$
MIZ007>008-015-070000-
EASTERN UPPER MICHIGAN

CITY           SKY/WX    TMP DP  RH WIND       PRES   REMARKS
KINROSS          N/A     66  36  32 S10       29.76F
MACKINAC ISLAN MOSUNNY   50  36  58 E6        29.78F
NEWBERRY       MOSUNNY   66  38  35 SW13      29.73F
S. S. MARIE    MOSUNNY   70  39  32 S8        29.73F
MUNISING         N/A     71  41  33 S18G24    29.64F
$$
MIZ004>006-011>014-085-070000-
CENTRAL UPPER MICHIGAN

CITY           SKY/WX    TMP DP  RH WIND       PRES   REMARKS
MANISTIQUE     SUNNY     52  38  60 S10       29.73F
ESCANABA       SUNNY     61  41  48 S9        29.69F
MENOMINEE        N/A     66  46  48 E15       29.68F
SAWYER-GWINN   MOSUNNY   72  45  37 S17       29.64F
$$
MIZ001>003-009>011-084-070000-
WESTERN UPPER MICHIGAN

CITY           SKY/WX    TMP DP  RH WIND       PRES   REMARKS
IRON MOUNTAIN  SUNNY     88  30  12 SW9       29.63F
HOUGHTON       MOSUNNY   86  37  17 W12G21    29.56F
COPPER HARBOR    N/A     74  43  32 SW12      29.53F
IRONWOOD         N/A     73  46  38 N14G23    29.65R THUNDER
$$

ABBREVIATIONS USED IN REMARKS
   TC - TEMPERATURE IN CELSIUS
  WCI - WIND CHILL INDEX
   HX - HEAT INDEX
  VSB - VISIBILITY




USA.gov is the U.S. government's official web portal to all federal, state and local government web resources and services.